Wind_Speed
9 6 6 8 9 11 12 12 9 5 8 12 11 9 10 9 7 8 6 8 14 10 11 14 11 10 6 5 10 15 17 18 18 18 18 19 20 21 23 24 27 32 33 32 32 31 30 29 28 27 26 24 24 24 24 24 24 23 23 22 23 23 23 23 23 23 23 23 23 22 22 21 20 20 19 19 18 17 17 16 15 14 14 13 12 12
8 8 8 9 10 12 11 10 7 5 5 9 10 8 9 8 5 7 7 9 13 10 9 9 9 10 5 3 9 14 16 18 21 22 20 22 21 20 23 24 28 31 29 30 33 32 31 30 29 28 28 27 27 26 26 26 25 24 23 23 22 21 23 23 23 23 23 23 23 22 22 21 20 19 18 18 16 16 15 14 13 13 14 12 12 12
7 9 9 8 7 7 5 6 8 7 7 7 7 7 7 6 2 3 6 8 10 9 7 6 9 11 5 4 10 15 17 19 22 23 21 21 21 22 24 25 27 26 26 31 33 33 33 32 31 31 31 30 29 28 27 27 26 25 25 23 22 21 22 22 21 22 22 22 21 21 20 19 18 18 17 16 15 14 15 14 14 14 14 13 14 13
7 7 8 7 6 8 5 6 9 7 6 6 6 7 5 6 6 5 7 9 10 6 3 5 8 8 4 5 9 16 20 17 17 20 19 20 22 25 28 29 29 28 30 33 34 33 34 34 33 33 32 32 31 30 30 29 28 28 27 26 24 23 22 21 21 21 21 21 20 20 19 18 18 17 16 15 15 15 16 16 15 16 15 15 15 13
5 2 7 9 8 11 9 8 10 7 6 5 6 9 5 7 8 4 5 8 7 3 3 6 6 8 7 9 10 12 17 17 16 19 19 21 23 25 26 27 29 33 35 35 34 34 34 35 35 35 34 33 33 32 32 31 31 30 29 28 26 25 23 22 21 21 21 21 21 20 19 19 20 19 18 17 17 16 16 16 16 16 16 16 15 14
6 1 8 12 9 11 10 9 11 10 7 6 7 9 8 10 8 5 10 9 5 4 7 9 6 7 7 11 12 9 12 16 17 18 21 23 24 25 24 24 28 33 36 35 35 34 34 35 36 36 35 34 34 33 33 32 31 31 30 29 28 27 25 23 21 21 21 22 22 21 21 21 21 21 20 19 17 16 16 16 15 16 16 15 15 15
4 3 7 11 11 12 11 9 11 11 8 6 7 9 9 9 9 11 13 10 5 4 7 12 10 7 4 9 12 10 11 15 15 17 21 24 25 27 28 28 29 33 35 37 37 35 35 35 35 36 36 36 36 34 34 33 31 31 30 30 29 28 27 25 23 22 22 23 22 22 22 21 21 21 21 18 16 15 16 16 16 16 16 15 15 16
4 6 6 8 12 12 11 10 10 11 10 4 5 11 12 10 11 14 13 10 5 2 4 10 9 6 6 5 7 11 12 12 15 17 20 24 27 29 30 30 32 37 38 39 40 39 38 37 36 36 37 37 36 35 34 33 32 31 30 30 29 29 27 26 25 24 23 24 23 22 22 22 22 22 21 18 17 17 17 17 17 17 17 17 16 17
4 8 8 8 10 9 9 8 10 13 10 3 4 9 12 11 12 14 12 8 4 2 4 7 5 4 7 3 4 9 11 12 17 19 20 25 28 30 32 33 35 40 43 43 42 41 40 39 37 37 36 36 36 35 34 33 32 31 30 29 29 29 28 27 26 25 24 24 23 23 23 23 23 22 21 19 19 20 19 18 18 18 19 18 18 17
3 8 11 11 8 7 8 5 10 15 8 3 7 7 5 5 7 9 8 5 4 4 6 8 9 6 6 3 5 6 8 12 16 16 18 25 30 31 32 33 35 38 42 44 43 42 41 39 38 37 37 36 36 36 34 33 32 31 30 30 29 29 29 28 27 26 26 25 24 25 25 25 24 22 21 21 21 21 20 19 19 19 20 19 18 18
2 3 7 8 7 7 7 4 8 13 8 10 10 8 7 4 3 2 1 2 4 6 6 10 15 10 7 4 7 6 8 12 13 12 15 21 27 31 31 32 33 37 42 44 43 42 41 40 39 39 38 38 37 36 35 34 33 32 31 31 30 29 29 28 28 27 27 26 26 26 26 26 25 23 22 23 23 22 21 20 20 20 19 18 18 17
4 5 4 5 7 7 7 5 6 5 7 10 8 7 6 3 3 3 2 2 5 6 5 7 13 12 10 6 6 8 11 12 12 12 14 18 26 32 33 33 33 37 43 44 42 42 42 41 41 41 40 40 39 38 37 36 34 34 33 32 31 29 29 29 28 28 28 27 27 27 27 27 26 25 24 24 23 22 21 20 19 19 18 17 17 17
7 8 3 3 7 10 9 7 5 3 5 8 7 8 7 3 4 4 3 4 5 5 1 4 9 9 9 9 7 8 11 13 14 15 16 17 22 28 32 35 36 38 42 43 44 44 43 43 43 42 42 42 41 39 38 37 36 35 34 33 33 31 30 29 29 29 28 29 29 29 29 28 27 26 25 25 23 22 21 20 19 18 17 17 17 17
6 5 4 7 5 9 13 9 7 6 6 9 8 9 8 5 6 6 3 1 3 4 0 4 8 6 5 8 11 13 18 18 16 19 19 13 14 20 26 31 34 36 40 43 46 46 45 46 44 43 43 42 42 40 39 38 37 37 35 34 35 33 32 30 30 30 30 30 30 30 30 30 28 27 26 26 24 22 21 19 18 17 16 15 15 15
9 6 8 10 4 8 14 11 8 7 7 10 8 7 8 6 6 5 4 4 4 2 2 5 6 6 4 2 6 12 15 15 14 18 20 16 15 17 20 25 29 33 38 44 47 48 47 47 45 45 44 43 42 40 40 39 38 38 37 36 36 35 34 32 31 31 31 32 32 32 32 31 30 28 27 26 25 23 21 19 17 16 15 14 14 13
10 7 5 7 5 8 11 8 6 8 7 7 5 7 8 6 5 3 2 3 3 1 2 4 4 4 3 5 7 8 9 11 12 14 16 18 19 16 17 24 30 34 40 45 48 49 49 47 46 46 46 44 43 42 41 40 39 39 38 38 37 36 35 34 33 33 33 33 33 34 34 33 32 30 29 29 27 24 21 18 16 15 14 13 13 12
7 6 4 5 5 7 10 8 9 9 6 4 5 8 4 3 5 4 1 2 1 4 4 4 4 3 2 7 9 7 8 11 11 10 13 16 18 18 20 26 32 35 41 46 49 50 50 49 48 48 47 45 44 43 42 40 38 38 39 39 38 37 36 35 34 34 34 34 35 36 36 35 34 33 32 30 28 25 21 18 17 16 14 14 13 13
5 5 6 9 10 11 11 10 11 11 7 4 7 8 5 2 2 2 3 3 4 8 4 4 7 5 3 4 3 3 7 11 11 9 10 11 15 20 23 29 34 37 41 46 48 50 50 49 49 48 48 47 45 43 41 39 38 38 38 38 38 38 37 36 35 35 36 36 37 38 38 37 35 34 33 31 28 25 21 19 18 17 16 15 14 14
5 5 4 9 13 10 8 8 9 10 6 1 4 9 6 4 4 2 4 5 5 7 4 4 7 6 5 4 3 5 7 9 10 8 8 10 15 20 23 29 34 36 39 43 46 48 49 49 49 49 49 48 45 43 41 39 39 39 38 38 38 38 37 37 36 36 37 38 39 40 39 38 37 36 34 32 29 26 23 21 20 19 17 16 15 14
5 6 4 5 6 6 7 8 10 10 6 1 3 7 3 3 5 4 4 4 6 7 4 5 5 4 6 5 6 10 9 8 11 7 7 11 17 21 23 27 33 37 39 41 43 46 47 48 49 49 49 47 45 43 41 41 41 40 39 38 38 38 37 37 37 37 39 40 41 41 41 40 39 38 35 33 31 28 25 23 21 20 18 16 15 14
5 6 5 2 2 4 6 8 11 12 9 6 7 8 4 2 1 3 3 2 4 6 5 6 6 4 4 5 8 12 11 10 11 9 8 10 16 24 28 31 35 38 39 40 41 43 43 45 46 47 47 46 45 44 42 43 42 41 41 40 39 38 38 38 38 39 40 42 43 43 42 42 42 40 38 35 33 30 28 25 24 22 19 17 16 15
5 4 6 4 4 7 8 8 12 14 13 10 9 9 9 7 4 5 7 3 2 5 4 5 7 4 5 6 8 10 11 11 10 8 8 10 14 19 25 30 34 36 38 39 39 39 40 43 44 44 44 45 45 44 43 43 43 43 42 40 39 39 39 39 39 41 42 43 43 44 44 44 44 42 40 38 36 33 30 27 25 23 20 18 17 15
5 3 6 7 7 9 8 6 7 11 12 13 12 10 11 9 8 10 9 4 3 3 1 1 5 4 4 4 7 10 10 10 9 7 8 13 17 16 16 22 28 32 35 36 37 37 39 41 42 41 42 42 42 42 42 43 44 43 42 40 40 40 39 39 40 42 43 43 44 44 45 45 45 44 42 40 38 36 33 29 27 25 22 19 17 14
5 2 5 7 6 5 4 2 2 2 7 11 12 12 12 12 12 11 6 4 5 6 4 3 5 4 3 2 4 7 8 9 11 11 11 15 20 18 14 17 23 29 32 33 35 37 38 39 39 39 40 40 40 40 41 42 43 43 43 42 42 41 40 39 40 41 43 44 44 45 45 47 47 46 45 43 41 39 35 31 28 26 23 20 18 16
6 4 5 6 6 5 6 6 5 4 5 8 8 9 12 15 15 7 1 2 5 9 10 7 6 5 3 1 1 5 8 9 13 15 13 14 19 18 15 17 21 25 29 32 34 36 37 37 37 38 39 38 38 38 39 40 41 41 43 43 43 42 40 40 41 42 43 44 45 46 46 48 49 49 48 46 44 41 38 34 31 29 27 25 25 22
6 4 6 8 9 9 9 9 8 5 4 5 5 7 10 15 16 7 2 5 7 6 9 9 6 4 2 2 3 5 6 9 13 15 14 17 21 21 19 19 20 24 28 31 33 35 36 36 36 37 37 37 36 36 36 37 38 39 41 42 42 42 42 42 42 43 43 44 46 47 47 48 50 51 51 49 46 43 40 36 33 32 32 30 29 27
2 3 9 11 10 10 10 8 6 6 7 7 9 11 11 13 14 10 6 8 5 4 6 8 6 6 6 6 6 7 7 9 12 12 13 21 26 24 23 22 21 24 28 29 32 34 34 35 35 36 36 35 35 34 34 34 35 37 38 39 40 42 43 43 43 43 44 44 46 47 48 49 50 51 53 51 47 43 41 39 36 35 35 32 31 29
2 4 12 14 13 14 14 13 10 11 13 14 14 15 15 15 16 14 12 8 6 5 9 7 6 9 10 9 9 10 9 9 9 9 14 24 27 24 22 21 21 23 26 29 32 33 34 35 35 35 35 34 33 33 32 33 34 35 35 35 37 40 41 41 41 42 43 44 46 47 48 49 50 51 52 49 44 42 41 40 38 38 37 34 32 29
3 7 10 13 15 16 18 17 12 12 14 15 16 17 17 17 18 17 16 11 8 8 11 7 8 10 11 10 10 11 11 11 14 19 23 24 23 21 21 22 23 24 27 30 32 34 35 35 35 34 33 32 31 31 31 31 32 32 32 33 35 37 38 37 37 39 41 42 44 45 46 48 50 50 49 46 44 44 43 40 39 40 39 36 33 31
2 5 6 9 14 16 18 17 12 12 14 14 16 17 17 19 20 20 19 16 14 13 12 9 11 12 11 11 11 12 14 14 15 19 20 19 20 21 22 25 25 26 29 32 33 34 34 33 33 32 30 30 29 28 27 28 28 29 30 31 32 33 34 34 34 35 37 39 40 41 43 45 46 47 47 45 44 45 45 43 42 43 42 39 38 36
2 2 1 5 9 12 14 14 12 14 15 16 17 16 15 16 17 18 17 14 13 12 9 8 9 9 8 8 7 8 10 9 11 13 14 17 20 21 23 26 27 28 31 33 33 33 33 32 31 29 28 27 25 24 24 25 25 26 27 28 28 29 29 30 31 33 34 36 36 37 39 41 42 44 44 45 44 44 46 47 48 48 45 41 41 40
3 1 1 3 5 7 8 11 13 15 16 18 19 18 15 13 12 13 11 9 11 10 8 7 6 6 7 6 6 6 6 6 9 11 14 18 20 21 25 28 29 30 32 33 33 31 31 31 29 27 25 23 22 22 22 22 23 23 23 23 22 23 24 26 27 29 31 33 33 34 36 38 40 42 42 43 44 43 46 49 50 51 50 46 45 42
4 2 2 0 4 5 3 5 8 9 10 12 15 17 16 13 11 11 9 10 12 11 9 8 7 7 7 5 6 8 8 8 11 14 18 21 22 24 27 30 31 32 32 33 32 30 29 29 27 25 23 22 22 22 20 19 19 17 16 15 15 17 19 20 22 25 27 29 31 32 34 36 38 40 40 41 41 41 45 48 46 47 50 52 51 45
5 4 3 1 3 4 2 2 3 5 7 8 8 13 18 18 17 15 12 12 14 12 8 6 7 8 7 6 8 10 11 12 16 19 20 21 22 24 26 27 28 30 31 30 29 28 28 27 25 24 23 23 22 20 17 14 12 9 8 9 10 12 14 15 17 20 22 25 28 30 32 34 36 37 38 38 38 38 42 45 43 42 46 51 52 46
4 6 3 1 3 4 1 2 4 6 6 4 1 4 11 16 18 18 16 14 13 13 10 7 8 9 8 9 11 11 12 14 15 15 15 16 19 21 23 23 22 23 25 26 26 27 27 25 23 22 21 20 18 15 13 12 11 10 9 8 7 8 9 10 13 16 19 22 25 28 30 32 33 35 35 35 35 37 40 42 42 43 44 46 48 43
2 6 4 1 2 2 1 3 4 4 4 3 2 3 3 5 8 12 14 11 10 12 12 11 11 10 7 7 8 9 10 10 8 8 10 13 15 16 18 20 20 20 22 24 26 25 23 20 19 17 16 16 15 16 17 16 14 12 9 7 5 5 5 8 10 13 16 20 22 25 27 29 30 32 32 32 33 35 38 40 42 42 40 41 43 41
2 4 4 3 2 2 2 3 3 5 5 3 2 2 2 2 4 7 9 9 9 11 12 12 12 9 5 5 6 8 10 8 5 4 7 10 13 13 13 14 15 19 21 21 20 17 15 14 13 14 16 19 20 21 20 17 14 11 9 7 5 4 5 6 8 11 14 17 19 21 24 26 28 28 28 29 31 34 36 39 41 38 35 36 38 37
3 3 3 3 2 1 3 3 3 6 6 3 2 1 3 4 5 4 5 6 7 9 12 12 11 9 7 6 8 11 11 7 5 4 5 9 11 12 13 12 13 16 16 15 15 15 17 18 20 21 23 24 23 21 18 15 13 11 9 7 6 5 6 6 7 9 11 14 16 19 21 23 24 24 24 25 29 32 34 37 37 35 34 35 32 29
5 1 2 4 4 2 3 4 4 5 4 1 3 6 8 8 7 3 5 6 6 9 12 12 10 9 9 9 11 13 10 8 6 4 5 9 11 11 13 14 14 16 17 19 21 23 25 26 27 27 26 25 22 19 16 14 12 10 8 7 7 7 7 7 8 9 10 12 14 16 18 20 20 20 20 22 26 29 31 31 30 30 33 34 30 28
5 2 1 5 5 2 2 4 4 4 2 4 7 11 14 10 3 4 7 6 4 8 11 11 10 10 9 12 14 11 6 5 5 8 11 13 14 14 16 18 20 23 25 27 27 28 29 28 28 28 26 21 17 16 14 12 11 9 8 8 8 8 8 9 9 9 9 11 12 14 16 17 16 16 18 20 22 25 27 27 26 27 31 31 28 27
4 3 1 4 5 2 2 4 5 3 1 6 12 17 16 7 4 7 6 2 2 2 7 9 10 9 10 12 11 6 2 4 10 16 19 19 19 19 20 22 25 27 29 29 28 28 27 26 26 25 22 17 14 12 11 10 10 9 9 8 8 9 10 10 10 9 10 10 10 12 13 13 12 14 16 18 20 21 23 24 25 26 27 26 25 25
3 3 2 1 3 2 1 3 6 4 2 10 19 19 9 3 5 4 1 4 4 1 5 6 7 9 10 11 10 10 12 17 21 24 24 25 28 29 27 28 29 30 29 28 26 25 25 24 23 21 17 14 11 10 9 10 11 10 9 9 10 11 12 11 11 11 11 10 9 10 10 10 11 13 15 17 18 20 21 24 25 24 24 23 23 26
5 5 3 1 1 1 1 2 6 4 3 15 21 11 1 2 3 1 2 4 5 7 11 12 11 11 12 14 17 18 21 24 27 29 31 32 34 34 33 32 32 31 30 29 26 24 22 22 20 17 13 11 10 9 10 11 11 9 9 10 12 13 13 13 12 12 11 10 9 8 8 9 10 13 13 14 17 18 20 24 24 21 21 23 24 25
3 4 3 3 3 2 1 1 3 4 6 14 14 5 5 9 7 2 2 6 9 10 14 17 17 18 21 22 21 22 24 26 28 31 33 34 34 35 34 32 30 29 27 26 24 21 18 17 15 12 9 9 9 10 11 11 10 8 9 11 13 14 14 13 13 12 11 10 9 8 8 9 11 12 12 13 16 18 22 24 22 19 22 25 24 24
3 2 3 3 3 3 2 0 3 6 8 12 11 8 10 10 5 6 11 13 14 15 18 20 21 25 30 30 28 28 28 29 30 31 31 31 31 32 31 28 26 25 23 22 21 19 15 13 12 10 10 11 12 12 12 11 9 8 10 12 13 13 13 13 12 12 11 10 9 7 8 9 10 11 11 12 14 18 23 24 22 20 24 25 24 24
5 5 2 1 3 4 4 2 3 5 8 12 13 12 11 10 7 10 20 23 24 27 31 30 30 31 33 35 36 35 32 31 31 30 28 28 27 27 26 25 22 21 19 19 18 16 13 12 11 10 10 11 11 11 10 9 9 9 10 12 12 12 12 12 12 11 11 9 8 8 8 9 11 11 11 12 14 18 22 23 22 21 23 25 25 26
6 10 7 1 6 4 3 4 2 5 9 11 12 11 12 12 11 17 28 30 31 35 37 36 36 36 35 36 36 34 32 31 30 28 26 25 24 23 23 22 19 17 16 15 14 13 11 10 10 9 9 8 8 8 8 8 9 9 10 10 10 11 12 12 12 11 10 10 9 9 9 10 11 11 11 13 16 18 19 20 21 22 23 24 25 27
6 10 8 1 5 1 0 6 10 10 10 10 10 9 11 13 15 22 31 32 32 34 34 33 34 34 33 32 31 30 29 27 26 25 24 22 21 21 20 19 16 14 13 11 10 10 9 8 8 8 8 9 8 8 8 8 7 7 7 8 9 10 11 11 11 10 10 9 9 10 10 10 10 10 11 13 15 16 15 16 18 20 23 25 25 25
7 7 7 2 3 1 2 4 13 16 7 5 6 9 11 15 18 23 27 28 28 29 28 29 30 29 28 28 25 25 25 22 20 20 20 19 19 18 16 14 13 11 10 8 7 6 6 6 7 7 8 8 8 8 8 7 6 6 6 6 8 9 10 10 10 9 9 9 9 9 9 8 8 10 11 13 14 13 12 12 14 18 22 24 23 21
5 4 5 4 3 3 2 6 6 10 5 5 7 10 12 14 17 21 26 27 26 25 24 25 25 24 23 23 20 20 20 19 16 15 16 16 15 13 12 11 10 9 8 6 5 4 4 4 4 4 5 5 5 6 5 5 4 4 5 6 7 8 8 7 7 7 7 8 8 8 9 9 9 10 11 11 11 10 9 10 12 15 18 19 19 17
5 4 4 4 3 2 1 4 2 4 3 11 15 15 13 12 13 17 23 25 25 24 23 22 23 24 25 24 22 20 21 20 17 15 15 15 12 10 9 8 7 7 7 6 5 5 4 3 3 2 2 2 2 3 3 3 3 3 4 6 6 6 4 3 3 4 5 6 8 9 9 9 10 10 10 10 11 11 12 12 12 13 14 14 13 11
Wind_Direction
183 186 201 197 183 179 183 193 193 179 191 192 192 211 207 195 189 168 132 148 172 191 216 214 233 242 219 174 189 194 195 200 201 200 200 199 199 199 201 204 208 215 219 219 220 218 216 215 214 216 217 217 217 216 216 215 215 214 215 218 220 221 221 222 223 223 223 224 226 228 230 232 233 233 233 236 240 242 245 251 254 255 263 269 268 273
190 207 203 192 183 179 184 186 166 147 184 193 192 205 212 208 190 166 154 148 169 197 218 220 251 256 244 196 194 196 199 206 204 202 204 202 201 203 204 207 211 216 217 219 222 221 221 220 218 219 220 220 219 217 216 216 215 213 214 216 218 218 218 219 220 220 222 224 226 229 231 232 234 235 237 240 243 247 251 255 257 258 266 271 267 271
200 218 200 183 181 171 167 177 171 165 174 186 195 203 210 198 139 144 169 153 162 200 217 203 238 247 237 212 205 203 208 213 210 207 207 205 202 204 207 209 211 212 213 219 223 222 222 223 221 221 222 221 221 220 219 218 217 215 215 215 215 215 215 216 217 219 221 224 226 230 233 235 237 240 243 246 248 251 253 256 258 259 263 265 266 268
200 218 193 167 164 164 150 171 173 164 177 185 188 204 208 169 176 202 187 170 166 188 201 179 233 253 223 213 218 213 216 219 218 215 213 211 209 210 212 213 212 212 214 220 223 222 222 223 223 223 221 221 221 222 222 220 219 217 216 215 214 214 215 215 217 219 222 224 226 229 232 233 237 240 244 249 252 251 251 253 256 257 258 261 265 267
208 213 168 158 172 181 168 167 173 171 187 199 200 208 195 160 192 209 148 157 160 151 142 154 237 260 211 214 225 213 215 221 221 218 217 218 218 219 219 217 217 219 221 223 223 223 223 222 222 222 221 221 222 223 222 222 220 219 218 216 216 216 217 217 218 220 222 223 223 225 228 230 233 237 239 243 245 245 246 249 253 255 257 260 263 264
226 193 157 163 177 190 180 174 185 186 183 202 216 216 200 175 177 142 133 147 163 207 193 174 235 259 197 213 225 199 203 218 218 218 220 219 219 222 222 219 219 221 224 225 224 223 224 224 222 221 222 222 223 223 222 222 221 221 220 219 219 219 220 220 220 221 222 223 223 223 226 228 230 234 236 238 240 243 246 249 253 255 256 258 259 258
223 167 168 174 173 184 192 191 190 189 190 204 202 200 202 184 163 150 155 165 186 219 194 186 221 253 195 211 217 194 201 216 215 219 223 220 218 220 221 221 221 221 223 225 226 225 224 225 224 223 222 222 222 222 221 222 222 222 222 222 222 221 222 223 222 222 223 224 225 226 229 232 234 237 241 243 243 246 250 250 251 251 251 254 253 253
179 167 183 191 180 183 196 197 186 188 199 201 167 179 186 180 169 164 168 183 189 121 159 190 217 262 254 229 196 191 206 218 218 223 224 221 219 219 220 221 221 223 224 226 227 226 225 225 224 224 223 221 222 222 222 223 223 223 223 223 224 224 224 224 224 224 224 225 227 228 231 235 237 241 245 248 247 248 249 248 247 246 248 249 249 251
157 184 190 187 189 197 199 188 171 183 203 201 148 175 181 181 179 176 182 190 172 151 188 194 198 246 252 246 136 186 207 220 223 223 223 221 220 218 219 219 221 226 228 228 229 228 227 226 225 225 225 224 224 224 224 223 224 225 225 225 225 225 226 226 226 226 226 227 229 231 233 236 239 240 244 246 246 245 244 245 245 244 247 249 248 251
168 201 196 188 195 204 202 183 167 183 201 139 131 136 139 159 168 178 196 176 144 207 215 188 184 215 253 213 141 180 212 225 226 222 221 221 218 218 218 217 220 225 228 230 230 230 230 230 229 228 227 228 227 226 226 225 226 226 226 226 226 226 227 227 227 227 228 229 230 232 234 236 239 240 242 243 242 241 240 241 241 241 245 248 247 248
209 200 187 197 211 197 191 189 181 188 170 131 132 118 97 93 117 133 210 132 159 223 223 192 188 207 257 224 163 185 214 217 219 221 221 219 218 218 218 217 216 221 227 230 229 231 233 233 232 231 230 229 228 228 227 226 227 227 227 227 227 228 227 228 228 228 229 229 230 233 234 236 239 240 240 240 239 238 237 238 238 238 241 243 243 245
239 220 177 209 215 186 181 195 203 199 155 147 148 138 127 109 122 116 84 169 206 223 224 205 193 203 243 242 182 205 224 219 216 221 218 213 215 216 216 216 215 219 226 228 228 230 232 232 232 232 232 231 229 228 227 227 228 228 228 228 228 229 228 227 228 229 230 230 232 234 235 236 238 239 239 239 238 238 238 238 237 236 236 235 237 240
227 223 205 226 206 184 189 193 188 194 185 182 164 157 170 166 168 182 180 193 218 226 222 176 184 201 241 254 242 232 240 236 227 229 227 217 214 213 213 213 214 218 223 224 226 229 231 231 231 232 232 231 229 228 227 227 227 228 228 228 228 229 228 227 228 229 230 231 232 235 236 236 236 238 239 238 239 239 238 238 236 234 232 232 235 242
209 226 223 225 211 187 196 198 188 181 190 195 173 168 186 176 182 196 178 183 228 231 190 142 178 209 247 252 246 240 247 245 232 233 239 234 222 217 214 213 214 218 220 222 226 228 229 231 231 232 232 232 230 230 229 228 226 226 227 227 228 229 228 228 228 229 230 231 232 234 235 235 235 236 237 237 238 238 238 238 237 238 237 238 244 251
205 221 203 204 198 175 197 213 199 163 177 199 183 184 198 180 192 202 181 204 212 193 121 139 178 207 191 224 237 235 255 263 246 237 236 235 235 229 217 211 212 215 219 223 225 227 229 231 231 232 232 232 231 230 229 228 227 226 226 226 227 228 228 228 228 229 229 230 231 232 233 233 233 235 235 235 237 237 238 239 238 239 241 245 253 258
212 231 189 196 201 175 195 210 173 156 183 198 174 199 208 177 178 197 189 205 184 158 170 169 209 224 214 308 287 248 265 271 252 238 227 223 224 218 207 206 209 211 217 222 224 226 228 229 230 231 231 231 231 230 229 229 228 226 226 226 226 227 227 228 229 229 229 229 230 230 230 231 231 232 232 233 235 237 238 238 239 241 244 249 254 257
210 225 166 183 215 198 195 180 172 191 192 157 181 205 201 153 176 187 181 77 132 232 205 172 231 241 241 284 272 247 252 253 246 234 224 216 206 204 204 205 208 211 215 221 223 225 227 227 228 229 230 230 229 229 229 229 228 227 226 226 226 227 227 228 229 230 229 228 228 229 230 230 230 230 231 232 234 236 237 236 236 237 240 245 248 251
206 214 174 187 210 213 205 192 198 207 180 153 199 181 107 59 210 193 211 170 188 232 216 168 225 229 210 249 261 249 249 249 244 226 216 206 194 204 210 209 212 215 217 221 223 225 227 225 225 226 228 229 230 230 229 229 229 229 229 229 228 228 227 228 229 230 229 228 228 229 230 230 230 230 232 233 234 235 235 234 233 233 235 240 243 247
198 225 195 196 209 198 182 198 215 208 189 248 198 160 140 202 192 162 216 197 197 230 219 183 219 229 219 219 239 254 254 258 256 224 192 197 201 209 212 212 215 216 217 220 221 223 224 224 225 225 225 227 229 230 231 230 229 230 230 231 231 230 229 229 230 231 230 228 228 229 230 231 231 231 232 232 232 233 233 232 233 233 236 238 242 246
179 224 214 192 206 174 158 195 216 207 191 31 164 168 187 226 186 178 198 186 205 227 222 204 210 210 216 212 220 238 244 254 258 239 200 207 210 213 214 211 213 214 215 217 218 220 222 224 225 225 225 226 227 229 230 229 229 230 230 231 230 231 230 230 231 232 230 229 228 230 230 231 232 232 232 232 231 231 230 231 231 232 233 235 238 244
169 218 221 167 136 179 188 197 213 210 194 188 195 188 192 197 165 200 195 168 211 218 210 222 226 197 191 208 215 227 235 238 244 244 232 221 214 218 221 218 215 215 216 217 218 219 222 223 223 223 225 226 227 227 227 227 229 229 229 230 230 230 229 229 230 232 231 230 230 231 230 231 231 232 232 231 231 231 230 230 230 230 230 230 232 236
176 195 214 192 169 203 207 194 209 218 205 197 203 196 192 186 167 202 211 184 203 219 199 221 241 217 176 199 214 221 232 235 235 240 247 245 232 225 225 223 221 218 217 217 219 220 221 222 221 221 223 224 225 226 226 227 229 229 228 230 230 230 230 230 230 231 231 232 232 232 231 231 232 233 233 232 231 231 230 229 230 231 228 225 226 227
173 168 211 216 214 216 210 184 203 225 215 205 207 203 201 199 193 209 216 178 172 216 134 206 249 229 169 191 215 221 233 243 245 247 256 260 254 245 233 225 223 222 220 219 220 220 220 221 220 221 223 223 224 225 225 226 228 229 230 230 230 231 231 231 231 232 233 234 235 234 233 233 234 234 234 234 233 232 231 229 229 229 226 222 220 216
158 152 207 222 237 237 229 185 151 230 216 212 213 204 201 208 211 218 215 169 188 196 163 196 238 209 161 176 223 241 258 265 259 247 244 257 260 258 248 232 225 223 220 218 218 218 219 220 221 221 222 223 224 225 224 225 228 230 232 231 231 232 233 234 234 235 235 236 236 236 235 235 235 236 236 235 234 233 232 228 226 226 223 216 209 205
174 186 197 211 230 233 225 214 204 203 207 215 217 206 208 211 211 214 116 147 216 198 185 212 229 192 170 147 202 251 258 260 258 247 241 253 259 256 249 238 228 222 218 215 215 216 218 220 221 221 223 223 224 225 225 226 228 230 232 233 233 235 236 236 237 237 237 237 237 238 237 237 237 238 238 237 235 234 233 229 224 221 219 215 210 212
185 192 186 200 218 220 217 217 213 199 193 215 213 201 210 211 205 192 148 210 222 188 188 220 226 180 180 220 220 240 243 248 254 249 244 251 255 253 247 238 226 220 217 214 212 214 217 219 220 221 222 224 225 225 226 228 229 230 233 235 236 237 238 239 239 239 239 238 239 240 239 239 239 239 240 240 238 235 233 230 225 220 219 219 215 219
186 186 190 202 215 219 219 217 198 180 189 208 209 202 202 206 203 195 200 217 204 154 199 222 217 207 207 203 215 228 225 234 245 243 239 245 249 250 246 238 226 220 217 212 211 212 214 217 219 221 222 223 225 226 229 229 229 231 234 236 238 239 240 241 242 242 242 241 241 241 242 242 242 241 242 242 239 236 234 231 227 222 223 225 220 222
183 209 200 205 213 219 222 216 195 191 205 209 210 209 199 194 197 201 213 209 152 166 219 208 192 215 210 195 209 220 221 230 241 239 237 240 243 245 243 234 224 219 215 211 210 211 213 216 218 220 222 223 225 227 228 229 231 233 236 239 239 240 241 244 246 245 245 244 244 244 244 244 245 245 245 244 239 237 236 232 229 226 225 225 223 226
213 224 203 206 217 221 225 222 200 196 214 214 211 211 201 194 195 202 215 206 161 199 230 199 181 208 207 201 212 217 217 220 227 233 236 238 239 240 236 226 218 215 212 210 211 211 213 215 217 219 222 223 225 227 228 230 233 235 237 239 240 241 244 247 248 248 247 247 247 249 248 247 246 246 246 243 240 238 235 232 231 227 223 223 225 230
242 233 200 208 223 226 229 227 204 198 218 222 215 212 202 199 199 201 210 204 190 213 228 199 192 206 206 207 212 218 224 226 233 239 239 235 233 230 224 217 214 212 212 212 212 211 212 215 217 219 221 222 225 227 228 230 232 234 236 238 240 243 245 248 250 250 250 251 252 253 252 250 249 248 246 244 241 237 232 231 233 227 221 222 226 230
252 249 176 193 225 236 234 229 212 206 218 225 223 218 207 203 203 206 212 204 195 211 222 201 203 216 219 219 222 234 241 240 241 240 232 228 227 221 216 214 212 212 213 213 211 209 211 213 215 218 220 223 225 226 228 230 231 233 236 239 241 244 247 250 251 252 253 255 256 257 255 254 252 249 247 245 241 235 229 229 230 228 223 220 223 228
262 251 123 168 225 240 227 226 224 214 215 227 229 222 210 202 202 208 210 197 190 201 211 209 213 228 233 224 226 246 248 236 237 235 230 229 224 216 214 215 214 213 212 211 209 208 210 212 213 216 218 219 221 223 226 229 230 233 237 240 244 247 249 253 254 255 257 258 259 259 258 256 253 250 249 246 242 238 231 225 221 221 222 222 224 230
296 328 11 224 243 252 239 229 226 211 213 230 231 222 214 205 203 209 208 201 200 200 202 207 215 227 226 194 194 223 226 225 236 238 234 230 223 219 220 220 218 216 213 210 207 206 210 213 213 214 212 211 213 217 222 227 232 237 241 245 250 250 252 255 257 259 260 260 261 261 259 257 253 251 251 248 244 241 234 225 215 211 216 224 230 234
303 327 346 324 266 279 317 99 164 203 222 229 220 216 215 208 205 210 211 209 211 209 206 212 216 219 213 185 192 213 215 220 235 242 243 237 227 223 224 224 221 216 211 208 207 207 210 212 213 213 213 212 215 219 223 226 227 226 225 230 237 242 250 256 259 262 263 262 263 261 258 256 253 252 252 249 246 241 236 231 222 213 214 224 232 234
315 325 322 246 264 285 340 139 201 228 238 253 248 204 215 216 213 215 218 216 212 209 209 219 223 219 211 201 205 215 217 220 235 251 257 251 241 232 228 226 223 217 210 205 204 207 209 209 209 213 215 217 218 214 204 189 176 172 178 193 214 233 248 257 262 266 265 263 262 260 258 256 253 252 251 249 247 242 237 235 230 219 215 221 229 234
341 313 304 246 243 262 237 212 239 279 305 313 12 101 164 206 206 212 226 232 219 209 208 214 222 221 215 212 214 217 215 211 221 244 247 241 239 237 234 232 229 223 215 209 205 205 206 206 209 209 206 202 192 178 165 155 152 154 160 173 197 226 250 261 268 270 266 264 263 262 260 257 253 252 252 249 246 242 238 239 235 225 220 224 231 236
135 263 279 274 239 238 274 266 273 298 289 244 180 133 140 178 185 203 226 226 204 199 203 211 222 220 207 209 204 187 180 180 192 228 233 225 219 217 220 225 225 222 218 212 205 199 194 189 184 178 171 166 160 153 148 145 146 151 159 170 189 213 244 261 270 273 270 269 268 266 264 259 254 254 254 251 246 242 241 242 237 230 227 228 231 233
121 227 251 276 271 264 292 299 299 285 269 201 146 17 349 321 304 279 246 224 191 186 196 207 217 213 195 184 174 162 161 181 209 209 210 212 207 201 200 202 206 207 202 190 176 165 158 153 151 153 154 151 147 144 142 144 148 153 160 170 187 210 233 252 266 275 275 274 273 270 266 262 258 257 257 254 249 246 245 241 237 233 232 231 232 234
114 169 219 256 269 270 278 294 293 275 277 12 17 348 338 323 313 287 234 219 190 181 192 201 205 203 192 175 164 158 163 195 215 191 179 189 186 183 183 178 174 171 162 154 150 147 144 144 146 147 147 144 141 139 141 144 146 149 160 176 198 216 231 249 265 275 278 275 273 271 266 263 262 262 260 258 255 251 246 242 239 235 232 233 240 244
115 95 305 273 268 263 278 289 277 256 294 6 355 335 327 321 299 209 214 208 166 170 184 193 197 196 185 168 161 164 184 216 193 156 157 165 163 162 162 157 153 151 146 143 143 143 142 145 146 145 142 138 135 135 140 146 149 158 179 194 210 227 240 256 268 272 271 270 270 269 266 264 265 266 262 258 256 252 246 241 236 231 231 238 246 244
111 103 11 280 269 265 262 278 285 269 346 6 340 326 321 309 209 202 213 235 359 177 179 186 187 177 169 165 161 157 130 104 122 134 142 145 142 139 141 141 141 140 138 138 140 141 141 142 144 142 138 132 130 136 145 154 164 177 192 205 222 239 251 261 265 259 256 258 263 265 265 265 266 263 260 257 255 251 245 237 230 231 238 244 242 230
129 132 110 262 268 291 268 285 298 282 74 6 338 324 313 253 204 207 281 339 338 56 128 140 147 145 149 148 134 118 116 119 123 125 127 128 127 125 125 127 127 127 126 125 126 128 130 132 134 135 132 131 140 153 160 171 181 187 198 218 237 250 257 260 258 252 247 246 252 258 260 261 258 253 253 253 251 245 235 225 225 235 244 240 228 221
159 161 145 172 233 334 59 279 289 278 15 356 342 330 305 285 280 274 7 15 36 83 101 97 96 111 121 117 109 108 112 116 119 119 117 116 115 115 116 118 117 116 115 115 116 120 125 128 131 133 136 144 158 169 175 183 190 196 213 234 247 255 260 260 255 249 242 237 240 246 247 248 246 244 245 247 246 238 222 219 228 239 235 224 219 221
149 169 168 167 190 192 166 230 301 310 341 347 344 336 323 325 319 298 93 72 64 76 93 92 89 99 106 103 100 100 100 101 104 107 108 108 109 110 111 112 112 113 115 117 119 121 125 130 134 140 151 164 172 179 187 194 201 212 231 246 255 259 261 260 255 248 241 237 235 233 234 237 238 238 237 238 239 230 218 222 235 236 221 214 216 222
1 291 194 169 180 175 144 93 315 314 329 346 353 346 336 340 5 76 88 84 72 71 82 86 89 97 101 99 95 91 90 91 94 96 97 100 103 106 108 110 112 114 116 118 121 123 126 132 138 150 166 175 180 184 192 204 217 232 245 252 257 259 260 258 254 248 243 239 234 227 228 231 232 233 230 228 230 225 221 228 237 230 218 216 217 221
3 358 360 152 155 130 106 104 295 317 347 3 3 4 9 8 16 68 84 84 79 80 84 85 86 90 93 95 93 89 88 91 92 92 93 94 95 98 103 106 110 112 114 117 120 124 130 136 145 159 169 176 183 189 197 211 224 235 246 252 256 259 259 256 253 248 242 237 231 223 222 225 227 226 221 219 225 227 229 235 238 229 221 221 222 224
17 13 5 191 170 147 134 158 155 5 5 6 3 11 31 33 36 67 81 82 82 85 87 88 88 88 87 89 88 86 88 91 92 93 94 94 95 98 101 103 106 110 113 117 123 129 136 144 153 165 173 181 192 199 206 217 226 234 244 250 255 258 258 257 255 249 242 234 224 217 217 221 223 219 215 218 224 228 231 236 237 230 225 226 227 228
348 354 358 184 177 156 193 160 130 86 35 11 13 21 31 37 48 70 81 84 85 87 88 89 91 90 87 86 86 87 87 88 89 91 92 92 95 98 99 100 101 105 110 118 130 139 146 156 168 178 188 198 206 211 217 224 230 236 244 250 255 258 259 259 258 254 246 236 224 216 214 216 218 215 213 217 221 223 225 230 232 230 229 230 232 235
310 318 346 324 202 96 12 169 130 109 78 2 31 55 56 57 61 73 83 86 85 85 84 85 86 86 85 84 84 85 84 83 85 90 91 92 95 97 98 99 100 105 114 125 135 142 153 168 180 191 202 209 215 220 224 228 230 238 246 251 255 259 260 262 265 265 257 242 228 219 210 204 206 207 209 215 218 217 217 219 223 227 231 234 239 245
331 323 350 319 214 139 160 211 149 109 132 177 121 89 79 77 73 74 80 82 81 82 83 82 81 81 82 81 81 81 80 79 84 91 93 92 93 95 100 105 108 113 117 119 120 126 141 156 170 191 206 213 218 220 222 226 228 236 249 253 256 260 263 265 268 264 255 242 228 215 200 191 196 204 210 218 223 224 228 233 234 235 237 239 243 245
345 330 323 292 272 345 307 233 278 24 113 145 127 108 98 97 90 81 80 83 84 84 86 86 84 83 82 81 82 84 84 81 82 87 88 85 84 89 95 97 102 112 116 117 117 117 120 125 138 171 193 205 212 207 208 218 222 241 260 260 260 259 250 234 226 230 233 228 219 209 198 195 203 212 217 224 232 238 245 249 248 246 242 236 228 218
Height
1484 1489 1491 1489 1489 1489 1488 1487 1488 1490 1492 1494 1498 1502 1502 1504 1506 1503 1502 1499 1500 1511 1514 1509 1510 1509 1510 1511 1511 1514 1515 1515 1516 1516 1517 1518 1519 1521 1521 1523 1524 1525 1527 1530 1533 1534 1536 1538 1540 1542 1543 1545 1546 1547 1548 1549 1551 1552 1553 1555 1556 1558 1559 1560 1561 1562 1563 1564 1565 1566 1566 1567 1568 1569 1570 1571 1571 1572 1573 1574 1574 1574 1574 1574 1574 1575
1484 1488 1486 1483 1483 1483 1484 1485 1487 1490 1493 1494 1497 1501 1502 1503 1504 1501 1501 1500 1499 1509 1513 1510 1513 1512 1510 1511 1511 1512 1513 1512 1511 1513 1514 1515 1517 1518 1519 1520 1521 1522 1526 1528 1530 1532 1534 1536 1538 1540 1541 1542 1544 1545 1546 1547 1549 1551 1552 1553 1555 1556 1557 1558 1560 1561 1561 1562 1563 1564 1565 1566 1567 1568 1569 1570 1570 1571 1571 1572 1572 1573 1573 1573 1573 1573
1487 1485 1481 1479 1480 1482 1485 1485 1487 1490 1492 1495 1496 1500 1503 1502 1503 1504 1502 1500 1500 1508 1512 1511 1514 1513 1509 1510 1509 1509 1510 1509 1509 1510 1511 1513 1515 1515 1516 1517 1518 1521 1523 1524 1526 1529 1531 1533 1535 1537 1538 1539 1541 1543 1544 1546 1547 1549 1550 1552 1553 1554 1556 1557 1558 1559 1560 1561 1562 1563 1564 1565 1566 1567 1568 1568 1569 1569 1570 1570 1571 1571 1571 1572 1572 1572
1487 1482 1476 1478 1481 1483 1487 1488 1488 1490 1492 1494 1495 1500 1503 1500 1504 1507 1504 1501 1500 1504 1508 1511 1514 1511 1508 1509 1507 1506 1507 1508 1510 1510 1511 1512 1512 1512 1512 1513 1515 1517 1519 1520 1523 1525 1527 1530 1531 1533 1535 1536 1538 1540 1542 1543 1545 1547 1548 1550 1552 1553 1554 1555 1557 1558 1559 1560 1561 1562 1563 1564 1565 1565 1566 1567 1567 1567 1568 1568 1569 1569 1570 1570 1570 1571
1481 1476 1474 1478 1481 1482 1487 1490 1489 1491 1494 1494 1493 1495 1498 1498 1500 1501 1501 1502 1503 1505 1505 1510 1519 1513 1506 1509 1506 1503 1506 1506 1507 1508 1509 1509 1509 1510 1511 1511 1513 1513 1515 1517 1519 1521 1523 1525 1527 1529 1531 1533 1535 1537 1538 1540 1542 1544 1546 1548 1550 1551 1552 1554 1555 1556 1557 1559 1560 1561 1562 1562 1563 1563 1564 1564 1565 1565 1566 1567 1567 1568 1568 1569 1569 1570
1477 1474 1473 1478 1481 1481 1485 1488 1487 1487 1493 1495 1492 1489 1491 1494 1496 1498 1501 1504 1512 1516 1506 1508 1527 1518 1503 1506 1503 1500 1503 1503 1504 1504 1504 1505 1506 1507 1508 1508 1510 1510 1512 1514 1515 1518 1519 1521 1524 1526 1528 1531 1532 1534 1536 1538 1540 1542 1544 1546 1548 1549 1551 1552 1553 1555 1556 1557 1558 1559 1559 1560 1560 1561 1561 1562 1563 1564 1565 1565 1566 1567 1567 1568 1568 1568
1475 1474 1474 1476 1479 1481 1484 1485 1483 1482 1490 1496 1488 1484 1488 1490 1493 1498 1500 1504 1514 1516 1502 1502 1520 1517 1504 1502 1499 1498 1501 1500 1501 1501 1499 1501 1502 1502 1503 1504 1505 1507 1508 1510 1512 1514 1516 1518 1520 1522 1525 1527 1528 1530 1533 1535 1538 1540 1542 1544 1546 1547 1549 1550 1551 1552 1554 1554 1555 1556 1557 1557 1558 1558 1559 1560 1562 1563 1563 1564 1564 1565 1565 1566 1567 1567
1472 1475 1477 1476 1477 1480 1482 1482 1480 1479 1488 1491 1481 1480 1488 1490 1493 1496 1497 1501 1505 1506 1505 1502 1508 1514 1509 1499 1494 1496 1500 1501 1499 1497 1495 1495 1496 1496 1497 1499 1500 1502 1503 1505 1508 1510 1513 1515 1516 1519 1520 1523 1525 1527 1530 1532 1535 1537 1539 1541 1543 1545 1546 1548 1549 1550 1551 1552 1553 1554 1555 1555 1556 1557 1558 1559 1560 1561 1561 1562 1562 1563 1564 1564 1565 1565
1469 1474 1476 1476 1478 1479 1476 1475 1475 1477 1483 1483 1477 1479 1484 1486 1489 1490 1492 1498 1499 1505 1515 1510 1508 1519 1514 1497 1494 1497 1499 1501 1496 1491 1489 1488 1489 1491 1491 1494 1495 1497 1499 1501 1503 1506 1508 1511 1513 1515 1517 1520 1522 1525 1527 1529 1532 1534 1536 1539 1540 1542 1544 1545 1547 1548 1549 1550 1551 1552 1552 1553 1554 1555 1557 1558 1558 1559 1559 1560 1561 1561 1562 1562 1563 1563
1468 1469 1470 1472 1476 1475 1472 1470 1470 1474 1478 1477 1477 1480 1483 1485 1488 1490 1493 1497 1503 1511 1515 1510 1508 1518 1512 1494 1496 1502 1499 1495 1487 1482 1481 1480 1483 1485 1485 1488 1490 1493 1495 1497 1500 1502 1505 1507 1509 1512 1515 1517 1519 1521 1524 1527 1529 1532 1533 1536 1537 1539 1541 1543 1544 1545 1547 1548 1549 1549 1550 1551 1552 1553 1555 1555 1556 1557 1557 1558 1559 1560 1560 1560 1561 1562
1464 1465 1466 1467 1469 1468 1468 1470 1470 1471 1473 1473 1477 1483 1488 1492 1492 1495 1497 1497 1511 1518 1509 1502 1502 1510 1509 1492 1488 1494 1487 1479 1477 1476 1475 1475 1478 1479 1480 1484 1486 1489 1491 1493 1497 1499 1502 1504 1506 1510 1512 1514 1516 1518 1521 1524 1526 1529 1530 1532 1534 1536 1538 1540 1541 1543 1544 1545 1546 1547 1547 1548 1550 1551 1552 1553 1553 1554 1555 1556 1557 1558 1558 1559 1560 1561
1465 1466 1466 1464 1464 1464 1466 1471 1470 1470 1470 1472 1478 1483 1492 1500 1499 1504 1506 1506 1519 1521 1503 1496 1496 1506 1510 1491 1478 1477 1470 1466 1469 1469 1468 1468 1469 1471 1474 1478 1481 1484 1487 1490 1493 1495 1498 1500 1503 1506 1508 1510 1512 1515 1517 1520 1523 1525 1527 1529 1532 1534 1535 1537 1538 1540 1541 1542 1543 1544 1545 1546 1548 1549 1550 1551 1551 1552 1553 1554 1555 1556 1556 1557 1558 1559
1466 1464 1463 1462 1461 1461 1466 1472 1473 1474 1473 1473 1477 1482 1495 1508 1511 1516 1518 1515 1519 1512 1499 1497 1499 1505 1504 1483 1472 1472 1466 1463 1462 1460 1460 1460 1462 1465 1469 1473 1476 1479 1482 1485 1488 1490 1493 1495 1497 1500 1502 1505 1508 1511 1514 1517 1520 1522 1524 1526 1528 1530 1532 1534 1535 1537 1538 1539 1540 1541 1543 1544 1545 1546 1548 1548 1549 1550 1551 1552 1553 1553 1554 1555 1556 1556
1470 1466 1461 1463 1462 1458 1461 1469 1474 1476 1474 1474 1475 1481 1492 1506 1517 1524 1523 1521 1517 1505 1497 1498 1501 1505 1498 1478 1467 1466 1460 1456 1455 1456 1457 1459 1461 1464 1466 1469 1473 1476 1478 1480 1482 1485 1487 1489 1492 1495 1497 1500 1504 1507 1510 1513 1516 1518 1521 1523 1524 1526 1529 1531 1532 1534 1535 1536 1537 1539 1540 1541 1543 1544 1545 1546 1547 1547 1548 1549 1550 1551 1553 1553 1554 1554
1474 1472 1461 1459 1460 1456 1457 1459 1462 1467 1471 1471 1467 1472 1481 1488 1500 1511 1513 1514 1509 1501 1501 1504 1503 1500 1491 1474 1461 1457 1453 1451 1453 1454 1455 1458 1460 1462 1464 1467 1470 1472 1474 1476 1477 1479 1481 1484 1488 1491 1493 1496 1499 1503 1506 1509 1512 1515 1517 1518 1520 1523 1525 1527 1529 1530 1531 1533 1534 1536 1537 1538 1540 1541 1542 1543 1543 1545 1546 1547 1549 1550 1551 1551 1552 1553
1469 1467 1452 1451 1453 1451 1455 1454 1453 1461 1470 1469 1463 1470 1476 1472 1477 1492 1497 1495 1494 1498 1504 1505 1497 1484 1474 1464 1453 1452 1453 1450 1450 1451 1451 1454 1456 1458 1461 1462 1464 1467 1469 1471 1473 1474 1477 1480 1484 1486 1489 1492 1496 1499 1502 1505 1508 1510 1512 1514 1516 1519 1522 1524 1525 1527 1528 1530 1531 1532 1533 1534 1536 1538 1539 1539 1540 1543 1545 1546 1547 1548 1549 1550 1551 1551
1467 1462 1448 1449 1451 1448 1451 1451 1450 1457 1465 1468 1469 1470 1467 1461 1466 1484 1496 1494 1494 1500 1499 1495 1490 1478 1472 1465 1452 1451 1453 1449 1447 1447 1447 1449 1451 1454 1456 1456 1459 1461 1463 1465 1467 1469 1472 1475 1479 1482 1485 1488 1492 1495 1498 1500 1503 1505 1507 1510 1513 1516 1518 1520 1522 1523 1525 1527 1528 1528 1529 1531 1533 1534 1535 1536 1539 1542 1543 1545 1545 1546 1547 1548 1549 1549
1457 1458 1447 1447 1451 1447 1445 1447 1448 1447 1452 1463 1468 1462 1460 1464 1466 1475 1491 1499 1502 1502 1495 1490 1487 1479 1480 1474 1455 1451 1454 1449 1445 1443 1444 1446 1448 1450 1449 1450 1452 1454 1457 1460 1462 1465 1468 1470 1474 1477 1480 1484 1487 1490 1493 1496 1499 1502 1504 1507 1510 1512 1515 1517 1518 1520 1522 1523 1524 1524 1526 1528 1530 1531 1533 1535 1538 1540 1542 1542 1543 1544 1545 1545 1546 1547
1447 1456 1450 1442 1446 1444 1442 1449 1452 1446 1445 1452 1454 1449 1456 1472 1476 1477 1486 1494 1501 1502 1494 1490 1487 1479 1477 1472 1458 1454 1453 1447 1442 1440 1442 1444 1443 1444 1444 1445 1448 1450 1453 1455 1458 1462 1464 1467 1470 1472 1476 1480 1483 1487 1490 1493 1496 1499 1502 1504 1507 1509 1512 1514 1516 1517 1518 1519 1520 1521 1523 1525 1527 1529 1531 1533 1536 1537 1539 1540 1540 1541 1542 1543 1544 1545
1442 1453 1453 1443 1441 1442 1443 1449 1452 1450 1448 1448 1449 1449 1452 1460 1466 1470 1473 1476 1486 1494 1492 1491 1490 1479 1468 1460 1455 1452 1447 1443 1441 1439 1439 1439 1437 1438 1439 1440 1443 1446 1448 1450 1453 1457 1459 1462 1465 1468 1472 1476 1479 1483 1486 1490 1493 1495 1498 1500 1503 1506 1508 1511 1513 1513 1514 1515 1516 1518 1520 1522 1524 1526 1529 1531 1533 1534 1536 1537 1538 1538 1539 1540 1542 1543
1438 1448 1452 1446 1443 1445 1446 1445 1444 1445 1448 1451 1453 1456 1456 1455 1457 1462 1464 1464 1470 1481 1487 1489 1487 1472 1455 1448 1448 1445 1441 1437 1436 1435 1434 1432 1432 1433 1434 1435 1438 1440 1443 1446 1449 1452 1455 1458 1461 1465 1469 1472 1476 1479 1483 1486 1488 1491 1494 1496 1499 1502 1504 1507 1509 1509 1510 1511 1513 1515 1517 1519 1521 1523 1526 1528 1530 1531 1533 1534 1535 1536 1537 1538 1539 1540
1437 1444 1447 1446 1446 1446 1441 1435 1434 1435 1438 1444 1448 1450 1451 1453 1457 1465 1470 1466 1462 1468 1474 1478 1478 1463 1443 1438 1439 1437 1434 1431 1429 1430 1429 1427 1428 1429 1430 1432 1434 1436 1439 1442 1445 1448 1451 1454 1458 1462 1465 1469 1472 1475 1479 1482 1484 1487 1490 1492 1495 1498 1500 1503 1504 1504 1505 1507 1510 1512 1514 1516 1517 1520 1522 1525 1527 1529 1530 1532 1533 1534 1535 1535 1537 1538
1430 1438 1444 1443 1440 1437 1433 1429 1430 1430 1430 1434 1438 1440 1442 1444 1449 1459 1467 1466 1463 1466 1465 1468 1472 1457 1434 1430 1433 1430 1428 1427 1427 1429 1428 1426 1426 1427 1429 1431 1432 1434 1436 1439 1442 1446 1448 1451 1455 1458 1461 1465 1468 1471 1475 1478 1480 1483 1486 1489 1492 1494 1496 1499 1500 1500 1502 1504 1507 1509 1511 1513 1514 1516 1519 1522 1524 1526 1528 1529 1531 1533 1534 1534 1535 1536
1427 1436 1443 1444 1437 1431 1429 1428 1429 1430 1431 1435 1434 1433 1436 1438 1439 1442 1450 1454 1458 1462 1463 1469 1475 1456 1432 1428 1431 1428 1427 1427 1426 1427 1427 1425 1424 1425 1427 1428 1430 1432 1434 1437 1441 1444 1446 1449 1452 1455 1458 1461 1464 1467 1471 1474 1477 1480 1483 1486 1488 1490 1493 1495 1496 1497 1499 1502 1503 1505 1507 1509 1510 1513 1515 1518 1520 1523 1525 1526 1528 1531 1532 1533 1534 1534
1428 1434 1440 1447 1451 1447 1443 1440 1437 1435 1434 1435 1433 1431 1431 1433 1435 1438 1444 1451 1454 1453 1453 1463 1468 1451 1431 1428 1430 1429 1429 1428 1425 1425 1425 1425 1423 1423 1425 1426 1428 1430 1432 1435 1439 1441 1444 1446 1449 1452 1454 1457 1461 1464 1467 1471 1474 1477 1479 1482 1484 1486 1489 1491 1493 1494 1496 1498 1500 1501 1503 1505 1506 1508 1510 1513 1517 1519 1521 1523 1524 1526 1528 1528 1529 1530
1423 1429 1432 1442 1453 1455 1453 1446 1438 1434 1434 1433 1431 1432 1432 1432 1435 1439 1446 1454 1456 1451 1447 1452 1453 1443 1431 1428 1429 1429 1430 1428 1424 1422 1423 1423 1421 1421 1423 1424 1426 1427 1429 1432 1435 1437 1440 1443 1446 1448 1451 1454 1458 1461 1464 1467 1471 1474 1476 1478 1481 1483 1485 1487 1489 1491 1492 1495 1496 1497 1499 1501 1502 1504 1505 1508 1512 1515 1517 1519 1520 1522 1522 1523 1525 1527
1420 1423 1423 1427 1432 1434 1434 1431 1425 1425 1430 1433 1431 1431 1431 1432 1432 1436 1443 1448 1448 1450 1449 1444 1442 1441 1435 1430 1429 1428 1428 1426 1422 1419 1420 1420 1419 1419 1420 1422 1424 1425 1427 1430 1432 1435 1437 1440 1443 1446 1449 1452 1455 1458 1462 1465 1468 1471 1473 1475 1478 1480 1482 1484 1485 1487 1489 1491 1492 1493 1495 1497 1498 1500 1501 1503 1508 1512 1515 1516 1518 1518 1519 1520 1522 1524
1419 1421 1418 1418 1419 1417 1416 1417 1417 1419 1423 1425 1426 1426 1427 1428 1430 1434 1438 1435 1436 1447 1449 1438 1436 1440 1434 1427 1426 1425 1424 1423 1420 1416 1415 1415 1415 1416 1418 1420 1423 1424 1425 1428 1430 1432 1434 1437 1440 1443 1446 1450 1453 1456 1460 1463 1466 1468 1470 1473 1475 1477 1478 1480 1481 1483 1485 1487 1488 1489 1491 1493 1494 1496 1498 1500 1504 1509 1511 1513 1515 1515 1517 1519 1521 1522
1416 1417 1413 1413 1414 1411 1409 1410 1413 1416 1417 1416 1418 1420 1421 1424 1426 1429 1431 1428 1430 1438 1438 1432 1434 1435 1428 1422 1421 1419 1418 1417 1414 1412 1411 1411 1412 1414 1417 1418 1419 1421 1423 1424 1426 1428 1430 1433 1436 1440 1444 1447 1451 1454 1457 1461 1463 1466 1468 1470 1472 1474 1475 1476 1478 1479 1481 1482 1483 1485 1487 1489 1491 1493 1494 1496 1499 1502 1504 1509 1513 1513 1513 1516 1519 1520
1412 1413 1410 1411 1412 1409 1408 1408 1410 1414 1416 1414 1413 1413 1414 1417 1419 1421 1421 1421 1423 1425 1423 1424 1428 1426 1419 1415 1412 1410 1411 1411 1410 1409 1409 1409 1410 1412 1414 1415 1415 1417 1419 1420 1421 1424 1427 1430 1434 1437 1441 1445 1448 1452 1454 1457 1460 1462 1465 1467 1469 1471 1472 1473 1475 1476 1477 1478 1479 1481 1483 1485 1487 1489 1490 1491 1494 1496 1499 1504 1510 1510 1509 1510 1514 1516
1411 1412 1410 1410 1413 1411 1406 1407 1409 1412 1414 1414 1411 1409 1409 1412 1414 1415 1415 1415 1419 1422 1420 1420 1426 1423 1412 1406 1406 1407 1409 1410 1410 1409 1407 1407 1408 1409 1411 1411 1411 1412 1415 1417 1419 1422 1425 1428 1432 1435 1439 1442 1445 1449 1451 1454 1457 1460 1462 1464 1466 1468 1469 1470 1472 1473 1474 1475 1477 1479 1480 1482 1483 1485 1486 1487 1489 1492 1494 1496 1501 1505 1505 1506 1508 1510
1409 1411 1409 1409 1415 1412 1404 1406 1408 1407 1410 1413 1410 1407 1408 1410 1412 1412 1411 1412 1415 1418 1420 1423 1425 1420 1408 1402 1405 1407 1408 1409 1408 1405 1404 1404 1405 1406 1407 1407 1407 1409 1412 1414 1416 1420 1423 1426 1429 1433 1436 1440 1443 1446 1449 1452 1454 1457 1459 1461 1463 1465 1466 1467 1468 1470 1471 1472 1474 1476 1477 1478 1480 1481 1482 1484 1485 1488 1490 1489 1492 1497 1499 1501 1503 1504
1412 1410 1409 1411 1417 1412 1404 1405 1405 1408 1418 1420 1408 1402 1404 1406 1407 1407 1407 1407 1407 1409 1414 1418 1415 1407 1400 1400 1405 1406 1406 1406 1404 1401 1401 1400 1401 1402 1402 1402 1404 1406 1408 1411 1413 1417 1420 1423 1427 1430 1434 1437 1441 1444 1447 1450 1452 1455 1457 1458 1460 1462 1463 1464 1465 1467 1468 1470 1471 1473 1474 1475 1477 1478 1479 1481 1482 1485 1487 1487 1489 1493 1494 1495 1498 1501
1416 1412 1411 1413 1416 1413 1407 1405 1407 1418 1426 1414 1394 1389 1394 1396 1400 1403 1403 1402 1400 1399 1401 1402 1399 1396 1396 1398 1401 1401 1401 1400 1399 1398 1398 1398 1398 1399 1399 1401 1403 1404 1406 1409 1412 1415 1418 1421 1425 1429 1432 1436 1439 1442 1445 1448 1451 1453 1455 1456 1458 1459 1461 1462 1463 1464 1466 1467 1468 1470 1471 1473 1475 1476 1477 1478 1480 1483 1485 1485 1488 1491 1492 1493 1495 1499
1418 1415 1414 1414 1414 1413 1408 1409 1421 1426 1413 1393 1384 1384 1387 1388 1390 1393 1394 1392 1392 1394 1394 1394 1394 1392 1392 1392 1393 1394 1394 1396 1397 1397 1397 1398 1397 1397 1398 1400 1403 1405 1406 1408 1410 1413 1416 1420 1424 1427 1431 1434 1438 1441 1444 1446 1449 1451 1453 1455 1456 1458 1459 1460 1461 1462 1463 1465 1466 1467 1469 1471 1472 1474 1475 1476 1478 1480 1482 1483 1484 1486 1489 1491 1494 1497
1417 1419 1417 1413 1413 1413 1411 1415 1423 1416 1396 1386 1388 1386 1385 1388 1389 1393 1395 1391 1388 1389 1390 1391 1390 1387 1387 1388 1389 1392 1394 1395 1396 1395 1395 1396 1396 1396 1397 1398 1400 1404 1406 1407 1409 1411 1415 1419 1423 1427 1430 1434 1437 1440 1442 1444 1447 1449 1451 1453 1455 1456 1458 1459 1459 1460 1461 1462 1464 1465 1466 1468 1470 1471 1472 1474 1475 1477 1479 1480 1481 1482 1486 1490 1492 1495
1412 1419 1417 1414 1413 1413 1413 1412 1410 1404 1396 1392 1390 1386 1385 1388 1387 1390 1393 1388 1381 1382 1384 1385 1385 1384 1385 1387 1389 1391 1393 1394 1396 1395 1393 1393 1394 1394 1395 1396 1398 1402 1405 1407 1410 1413 1416 1420 1423 1426 1430 1433 1436 1439 1441 1443 1446 1448 1450 1452 1453 1455 1456 1457 1458 1459 1459 1460 1461 1462 1464 1465 1467 1469 1470 1472 1473 1474 1476 1477 1478 1481 1485 1488 1490 1492
1408 1414 1415 1417 1415 1412 1413 1414 1412 1411 1405 1393 1387 1386 1385 1385 1384 1384 1387 1384 1377 1377 1379 1379 1381 1382 1383 1385 1388 1389 1393 1397 1398 1393 1390 1391 1392 1393 1394 1395 1397 1400 1404 1408 1410 1413 1416 1419 1422 1426 1430 1433 1436 1438 1440 1443 1445 1447 1449 1451 1452 1454 1455 1455 1456 1457 1458 1458 1459 1460 1461 1462 1464 1466 1468 1469 1470 1471 1473 1475 1477 1480 1483 1485 1487 1489
1407 1412 1411 1413 1414 1412 1413 1417 1418 1415 1403 1390 1388 1388 1386 1387 1384 1384 1391 1387 1374 1371 1375 1375 1376 1378 1379 1381 1384 1386 1392 1397 1395 1388 1387 1390 1391 1391 1393 1394 1396 1400 1403 1407 1410 1413 1416 1419 1422 1426 1430 1433 1436 1438 1440 1442 1445 1447 1449 1450 1452 1453 1454 1454 1455 1455 1456 1457 1457 1458 1459 1460 1462 1464 1466 1467 1468 1468 1471 1474 1477 1479 1481 1483 1485 1487
1407 1411 1413 1413 1412 1413 1415 1415 1412 1405 1395 1390 1390 1389 1387 1386 1385 1391 1399 1387 1368 1366 1371 1371 1371 1374 1376 1378 1380 1383 1387 1390 1386 1384 1386 1388 1389 1391 1392 1394 1397 1400 1402 1406 1410 1413 1416 1420 1423 1427 1430 1433 1435 1437 1440 1442 1444 1446 1448 1449 1451 1452 1453 1453 1453 1453 1454 1455 1455 1456 1457 1458 1460 1462 1464 1465 1466 1468 1470 1473 1475 1478 1479 1482 1483 1484
1407 1411 1419 1420 1414 1413 1416 1415 1408 1399 1393 1393 1393 1389 1388 1388 1390 1394 1393 1378 1366 1367 1369 1368 1370 1372 1374 1377 1378 1380 1383 1384 1382 1384 1386 1387 1388 1391 1394 1396 1399 1401 1404 1407 1411 1414 1418 1421 1425 1428 1431 1433 1435 1437 1439 1441 1443 1445 1447 1449 1450 1451 1451 1451 1451 1451 1452 1453 1454 1454 1455 1456 1458 1460 1462 1463 1465 1467 1469 1471 1474 1476 1478 1479 1480 1482
1407 1411 1420 1423 1418 1414 1415 1415 1411 1402 1395 1394 1394 1388 1387 1390 1390 1386 1379 1373 1371 1369 1367 1369 1372 1373 1375 1378 1378 1379 1382 1383 1384 1386 1388 1389 1389 1391 1395 1399 1400 1403 1406 1408 1412 1416 1419 1421 1425 1428 1430 1433 1436 1438 1439 1441 1442 1444 1446 1448 1449 1450 1449 1449 1449 1449 1450 1450 1452 1452 1453 1454 1456 1458 1460 1461 1463 1466 1468 1470 1472 1474 1475 1477 1478 1480
1398 1405 1417 1422 1419 1418 1419 1419 1417 1410 1398 1395 1395 1390 1388 1389 1385 1378 1376 1376 1373 1369 1368 1371 1373 1375 1378 1380 1380 1382 1383 1384 1387 1389 1390 1393 1393 1394 1397 1400 1402 1404 1406 1409 1412 1416 1418 1421 1424 1427 1430 1433 1436 1438 1440 1442 1442 1443 1445 1447 1448 1448 1448 1448 1448 1448 1448 1448 1449 1450 1451 1453 1454 1455 1457 1459 1461 1464 1467 1469 1471 1472 1474 1476 1478 1480
1391 1398 1410 1414 1413 1416 1421 1419 1414 1408 1400 1399 1400 1397 1393 1390 1385 1380 1379 1378 1375 1373 1373 1373 1375 1378 1380 1381 1383 1385 1387 1389 1391 1392 1393 1395 1396 1397 1400 1402 1404 1406 1408 1410 1413 1416 1419 1422 1425 1427 1430 1433 1435 1438 1440 1442 1443 1443 1444 1445 1446 1446 1446 1446 1446 1446 1446 1447 1448 1449 1450 1451 1452 1454 1455 1457 1460 1462 1465 1468 1470 1471 1472 1475 1477 1479
1396 1396 1399 1402 1404 1408 1411 1410 1408 1406 1403 1402 1400 1397 1394 1391 1388 1385 1381 1378 1378 1377 1375 1376 1378 1380 1380 1382 1384 1387 1389 1392 1395 1396 1397 1399 1399 1400 1401 1404 1407 1409 1410 1412 1413 1416 1419 1422 1425 1428 1430 1432 1434 1436 1439 1441 1442 1442 1443 1444 1444 1445 1445 1445 1445 1445 1445 1446 1447 1448 1448 1449 1451 1452 1454 1456 1458 1461 1463 1466 1467 1469 1471 1473 1475 1477
1398 1395 1394 1397 1401 1403 1403 1406 1408 1407 1405 1402 1399 1397 1395 1394 1392 1388 1382 1380 1380 1379 1378 1379 1381 1382 1383 1384 1385 1387 1392 1395 1396 1399 1401 1402 1402 1403 1404 1406 1410 1412 1413 1414 1415 1417 1421 1423 1426 1428 1429 1431 1433 1435 1438 1440 1440 1441 1442 1442 1443 1443 1443 1443 1443 1443 1444 1445 1445 1447 1447 1448 1450 1451 1453 1455 1457 1459 1462 1464 1465 1467 1469 1471 1473 1475
1396 1396 1395 1397 1400 1401 1402 1406 1409 1407 1405 1403 1401 1399 1396 1395 1395 1391 1385 1383 1383 1382 1382 1383 1384 1386 1388 1388 1388 1391 1395 1398 1399 1401 1403 1404 1405 1406 1407 1409 1413 1415 1416 1417 1417 1419 1421 1423 1425 1427 1429 1431 1433 1435 1437 1438 1438 1439 1440 1440 1441 1441 1442 1442 1442 1442 1442 1443 1444 1445 1446 1447 1449 1450 1452 1453 1455 1458 1460 1462 1464 1466 1468 1469 1471 1473
1400 1399 1399 1399 1400 1402 1402 1402 1403 1405 1406 1405 1402 1400 1398 1397 1397 1393 1388 1387 1387 1387 1387 1388 1388 1389 1390 1392 1395 1397 1398 1401 1403 1404 1406 1407 1408 1408 1409 1412 1414 1416 1418 1419 1420 1421 1422 1423 1424 1426 1428 1431 1432 1434 1436 1436 1437 1438 1438 1438 1439 1440 1440 1441 1441 1441 1441 1442 1443 1444 1445 1447 1448 1449 1451 1452 1454 1456 1458 1460 1462 1464 1466 1468 1470 1472
1404 1403 1403 1402 1403 1404 1404 1401 1398 1402 1409 1410 1406 1402 1400 1399 1400 1397 1392 1389 1390 1391 1392 1393 1392 1393 1394 1396 1398 1400 1402 1405 1407 1407 1409 1409 1410 1410 1412 1413 1415 1417 1418 1420 1422 1422 1422 1423 1425 1427 1429 1431 1432 1433 1434 1434 1435 1436 1436 1437 1438 1438 1439 1440 1440 1440 1440 1441 1442 1444 1445 1446 1448 1449 1450 1452 1453 1454 1456 1458 1461 1463 1465 1467 1469 1471
1405 1406 1406 1405 1404 1404 1404 1400 1395 1397 1405 1409 1406 1404 1401 1400 1402 1401 1396 1393 1394 1396 1397 1397 1397 1398 1398 1398 1400 1402 1404 1407 1409 1410 1411 1411 1412 1413 1413 1414 1416 1417 1418 1420 1422 1422 1423 1425 1426 1428 1429 1431 1431 1432 1433 1433 1434 1434 1435 1436 1436 1437 1438 1439 1439 1439 1440 1441 1442 1443 1444 1446 1447 1447 1449 1450 1452 1454 1456 1458 1460 1462 1464 1465 1467 1469
1408 1409 1408 1407 1407 1404 1401 1398 1396 1397 1401 1403 1403 1403 1403 1401 1402 1403 1400 1397 1398 1400 1401 1402 1402 1402 1402 1403 1403 1404 1406 1409 1411 1411 1412 1413 1415 1415 1415 1416 1417 1417 1419 1420 1422 1423 1424 1425 1426 1428 1429 1430 1430 1430 1431 1431 1432 1433 1434 1435 1436 1437 1438 1438 1438 1439 1440 1441 1442 1443 1443 1445 1446 1446 1448 1450 1452 1454 1456 1457 1459 1461 1462 1464 1465 1466